Simultaneous Nadir Overpasses (SNOs) Predictions

Prediction of SNOs between GOES-15 and NOAA-20 Satellite Orbit:

Table of predicted SNOs for the next 14.0 days since TLE Epoch: 10/26/2024
Index Date Time (GOES-15) GOES-15 Lat,Lon NOAA-20 Lat,Lon Distance(km) Time Diff (sec)
1 10/27/2024 21:16:36 0.15, 61.36 0.14, 61.44 8.54 80
2 10/30/2024 09:19:48 -0.14, 61.40 -0.32, 60.67 84.41 80
3 10/31/2024 09:03:44 -0.15, 61.41 0.70, 65.19 431.34 80
4 11/01/2024 21:25:32 0.12, 61.42 0.44, 59.91 170.65 80
5 11/02/2024 21:04:07 0.14, 61.44 -0.53, 64.45 343.71 80
6 11/04/2024 09:26:03 -0.11, 61.49 -0.64, 59.15 267.23 80
7 11/05/2024 09:09:57 -0.13, 61.51 0.33, 63.68 247.63 80
8 11/06/2024 21:31:46 0.10, 61.51 0.78, 58.40 353.77 80
9 11/07/2024 21:10:20 0.11, 61.54 -0.20, 62.94 159.77 80
